Location: El Chorro
(10.0985°N, 67.3542°W)
Time: 18:07:40
(UTC+00:00)

Nadezhda 4 Rocket - Pass Details

Date: 15 November 2025
Orbit: 949 x 991 km, 82.9° (Epoch: 06 December)

Event Time Altitude Azimuth Distance (km) Brightness Sun altitude
Rises 22:49:29 0° 12° (NNE) 3,660 6.7 -11.5°
Reaches altitude 10° 22:52:13 10° 20° (NNE) 2,707 6.0 -12.2°
Maximum altitude 22:57:48 35° 85° (E) 1,498 4.5 -13.5°
Drops below altitude 10° 23:03:19 10° 149° (SSE) 2,682 6.2 -14.8°
Sets 23:06:00 0° 158° (SSE) 3,623 6.9 -15.4°
